Regional Weather Roundup
Issued by NWS

Home | Current Version | Previous Version | Graphics & Text | Print | Product List | Glossary On
Versions: 1 2 3 4 5 6 7 8 9 10 11 12 13 14 15 16 17 18 19 20 21 22 23 24 25 26 27 28 29 30 31 32 33 34 35 36 37 38 39 40 41 42 43 44 45 46 47 48 49 50
000
ASUS43 KDMX 230701
RWRIA

WEATHER ROUNDUP FOR IOWA
NATIONAL WEATHER SERVICE DES MOINES IA
200 AM CDT SAT SEP 23 2017

NOTE: "FAIR" INDICATES FEW OR NO CLOUDS BELOW 12,000 FEET WITH NO
SIGNIFICANT WEATHER AND/OR OBSTRUCTIONS TO VISIBILITY.

* - THESE STATIONS ARE NOT NWS STATIONS...THUS NOT UNDER NWS
QUALITY CONTROL.  THEY ALSO DO NOT REPORT WEATHER SUCH
AS PRECIPITATION OR FOG.

IAZ001>003-012>014-020>022-031>034-043>046-230800-
   NORTHWEST IOWA

CITY           SKY/WX    TMP DP  RH WIND       PRES   REMARKS
CARROLL *      CLEAR     72  68  88 S7        29.91S
CHEROKEE *     CLEAR     74  69  84 S10       29.88S
DENISON *      CLEAR     75  68  78 S13G22    29.91R
LE MARS *      PTCLDY    75  68  78 S9        29.86R
ORANGE CITY *  PTCLDY    75  72  88 S7        29.88R
SHELDON *      PTCLDY    73  68  83 S12       29.86R
SIOUX CITY     PTCLDY    74  69  85 SE8       29.85R
SPENCER        PTCLDY    74  68  81 S10       29.89R
STORM LAKE *   CLEAR     73  68  83 S9        29.91R
$$

IAZ055>058-069>071-079>083-090>094-230800-
   SOUTHWEST IOWA

CITY           SKY/WX    TMP DP  RH WIND       PRES   REMARKS
ATLANTIC *     CLEAR     73  68  83 S10       29.91F
AUDUBON *      CLEAR     75  68  78 S10       29.93S
CLARINDA *     CLEAR     72  68  88 S6        29.95S
COUNCIL BLFS * CLEAR     73  72  94 S10G18    29.89R
CRESTON *      CLEAR     72  68  88 S9        29.97S
HARLAN  *      CLEAR     75  68  78 S9        29.94R
LAMONI         CLEAR     73  68  84 SE6       29.97F
RED OAK *      CLEAR     73  68  83 S7        29.92S
SHENANDOAH *   CLEAR     75  68  78 S9        29.92S
$$

IAZ047>049-059>061-072>074-084-230800-
   CENTRAL IOWA

CITY           SKY/WX    TMP DP  RH WIND       PRES   REMARKS
AMES           CLEAR     69  68  96 SE3       29.95S
ANKENY *       CLEAR     73  68  83 S7        29.96S
BOONE *        CLEAR     73  68  83 S7        29.94S
CHARITON *     CLEAR     70  66  88 S6        29.98S
DES MOINES     CLEAR     74  67  78 S7        29.95R
GRINNELL*      CLEAR     69  65  85 S3        30.00R
KNOXVILLE *    PTCLDY    72  66  83 S6        29.96S
MARSHALLTOWN   CLEAR     71  67  87 SE6       29.96R
NEWTON *       CLEAR     68  66  94 S5        29.97S
PELLA *        CLEAR     72  65  79 S6        29.98S
PERRY *          N/A     69  68  96 SE6       29.94S
$$

IAZ004>006-015-016-023>025-035-036-230800-
   NORTH CENTRAL IOWA

CITY           SKY/WX    TMP DP  RH WIND       PRES   REMARKS
ALGONA *       PTCLDY    75  68  78 S15       29.92R
CLARION *      PTCLDY    73  70  88 S10       29.94S
ESTHERVILLE    CLEAR     73  69  87 S13       29.89S
FORT DODGE *   PTCLDY    76  67  73 S12       29.93S
MASON CITY     CLEAR     71  66  84 S10       29.95S
FOREST CITY *    N/A     73  66  78 S12G17    29.93R
WEBSTER CITY * PTCLDY    72  66  83 S7        29.92S
IOWA FALLS *     N/A     71  67  87 S6        29.97S
$$

IAZ007>011-017>019-026>030-037>042-050>054-066-230800-
   NORTHEAST IOWA

CITY           SKY/WX    TMP DP  RH WIND       PRES   REMARKS
CEDAR RAPIDS     N/A    N/A N/A N/A SE7       29.99R
CHARLES CITY * CLEAR     73  68  83 S8        29.96F
CLINTON *      CLEAR    N/A N/A N/A S7        30.02R
DECORAH *      PTCLDY    73  66  78 VRB7      29.97R
DUBUQUE        CLEAR     71  64  78 S8        30.02R
MONTICELLO *   CLEAR     66  64  94 CALM      29.99S
OELWEIN *      CLEAR     68  66  94 S5        29.99R
WATERLOO       CLEAR     71  65  81 S6        29.96R
$$

IAZ064-065-067-068-078-230800-
   EAST CENTRAL IOWA

CITY           SKY/WX    TMP DP  RH WIND       PRES   REMARKS
DAVENPORT      CLEAR     71  64  78 SE8       30.02S
IOWA CITY      CLEAR     71  64  78 CALM      30.00R
MUSCATINE *    CLEAR     66  64  94 CALM      30.00S
QUAD CITIES    CLEAR     74  64  71 S8        30.00S
$$

IAZ062-063-075>077-085>089-095>099-230800-
   SOUTHEAST IOWA

CITY           SKY/WX    TMP DP  RH WIND       PRES   REMARKS
BURLINGTON     CLEAR     74  64  71 S5        30.00S
FAIRFIELD *    CLEAR     73  63  68 S6        29.99R
FORT MADISON * CLEAR     79  63  57 S9        30.01S HX  80
KEOKUK *       CLEAR     75  63  64 SE3       30.00R
OSKALOOSA *      N/A     68  64  88 S5        29.99R
OTTUMWA        CLEAR     72  65  78 S7        29.98R
WASHINGTON *   CLEAR     68  64  88 S6        30.00S
$$

ABBREVIATIONS USED IN REMARKS
   TC - TEMPERATURES IN CELSIUS
  WCI - WIND CHILL INDEX
   HX - HEAT INDEX
  VSB - VISIBILITY
$$





USA.gov is the U.S. government's official web portal to all federal, state and local government web resources and services.